Location: Unspecified
(52.4292°N, 19.3359°E)
Time: 14:58:59
(UTC+01:00)

A-11 Canister half - Pass Details

Date: 17 October 2025
Orbit: 1526 x 1682 km, 47.3° (Epoch: 13 November)

Event Time Altitude Azimuth Distance (km) Brightness Sun altitude
Exits shadow 06:35:21 - 269° (W) 4,003 10.5 -6.3°
Reaches altitude 10° 06:36:18 10° 268° (W) 3,696 10.3 -6.1°
Maximum altitude 06:45:24 62° 191° (SSW) 1,699 9.3 -4.8°
Drops below altitude 10° 06:54:35 10° 114° (ESE) 3,734 12.8 -3.4°
Sets 06:57:42 0° 112° (ESE) 4,734 13.9 -2.9°
